Flag for Canada Weather past 2 weeks in North Bay, Ontario, Canada

Now
64 °F

Overcast.


Feels Like: 64 °F
Forecast: 63 / 78 °F
Wind: 9 mph from Northeast

Location: North Bay

Current Time: Sep 3, 2015 at 5:32:52 AM

Latest Report: Sep 3, 2015 at 5:00 AM


Visibility: 9 mi

Pressure: 29.96 "Hg

Humidity: 94%

Dew point: 63 °F

Location of North BayLocation

Historic Weather in North Bay — Graph

°F

North Bay temperature yesterday

Maximum temperature yesterday: 79 °F (at 4:00 PM)
Minimum temperature yesterday: 64 °F (at 4:00 AM)
Average temperature yesterday: 70 °F

Past Weeks' High & Low Weather Summary

 TemperatureHumidityPressure
High84 °F (Aug 19, 3:00 PM)100% (Aug 19, 4:01 AM)30.21 "Hg (Aug 19, 4:01 AM)
Low46 °F (Aug 27, 4:03 AM)42% (Aug 23, 5:00 PM)29.59 "Hg (Aug 20, 10:00 AM)
Average64 °F87%29.97 "Hg
* Reported Aug 19 4:01 AM — Sep 3 4:00 AM, North Bay, Weather by CustomWeather, © 2015

Note: Actual official high and low records may vary slightly from our data, if they occured in-between our weather recording intervals... More about our weather records

Advertising

North Bay weather history for previous 24 hours

 ConditionsComfort  
Time TempWeatherWind HumidityBarometerVisibility
4:00 AM
Thu, Sep 3
64 °FOvercast.9 mph94%29.96 "Hg9 mi
3:00 AM64 °FClear.7 mph94%29.95 "Hg9 mi
2:00 AM66 °FClear.6 mph94%29.95 "Hg9 mi
1:00 AM66 °FClear.6 mph100%29.95 "Hg9 mi
12:59 AM66 °FClear.6 mph100%29.95 "Hg8 mi
12:00 AM64 °FFog.No wind100%29.96 "Hg5 mi
11:00 PM
Wed, Sep 2
68 °FClear.8 mph94%29.95 "Hg9 mi
10:00 PM68 °FClear.6 mph94%29.95 "Hg10 mi
9:00 PM72 °FFog.6 mph94%29.95 "Hg5 mi
8:00 PM73 °FFog.6 mph89%29.93 "Hg5 mi
7:00 PM77 °FPartly sunny.5 mph83%29.92 "Hg8 mi
6:00 PM79 °FFog.9 mph79%29.92 "Hg6 mi
5:00 PM79 °FFog.7 mph79%29.92 "Hg6 mi
4:00 PM79 °FFog.8 mph79%29.94 "Hg6 mi
3:00 PM77 °FFog.9 mph79%29.96 "Hg6 mi
2:00 PM75 °FFog.8 mph83%29.96 "Hg6 mi
1:00 PM77 °FFog.10 mph79%29.97 "Hg6 mi
12:00 PM73 °FFog.8 mph89%29.98 "Hg6 mi
11:00 AM70 °FFog.8 mph94%30.00 "Hg2 mi
10:00 AM68 °FFog.9 mph100%30.00 "Hg2 mi
9:00 AM66 °FFog.7 mph100%30.01 "Hg2 mi
8:00 AM66 °FFog.5 mph100%30.00 "Hg2 mi
7:00 AM64 °FFog.6 mph100%29.99 "Hg2 mi
6:50 AM64 °FPartly cloudy.6 mph100%29.99 "Hg1 mi
6:02 AM64 °FFog.5 mph100%29.99 "Hg0 mi
5:00 AM66 °FFog.6 mph100%30.00 "Hg1 mi
Weather by CustomWeather, © 2015

See weather overviewHow to use our weather pages